Weather History for Kinloss, United Kingdom

Change the Weather History Date:

Monday, November 19, 2012

  Actual Average Record
Temperature  
Mean Temperature 48 °F -  
Max Temperature 57 °F 45 °F 57 °F (2011)
Min Temperature 39 °F 35 °F 17 °F (1996)
Degree Days  
Heating Degree Days 17    
Moisture  
Dew Point 42 °F    
Average Humidity 76    
Maximum Humidity 93    
Minimum Humidity 57    
Precipitation  
Precipitation 0.16 in 0.07 in - ()
Sea Level Pressure  
Sea Level Pressure 29.28 in    
Wind  
Wind Speed 9 mph ()    
Max Wind Speed 23 mph    
Max Gust Speed 37 mph    
Visibility 6.9 miles    
Events Rain    
Averages and records for this station are not official NWS values.
T = Trace of Precipitation, MM = Missing Value Source: Averaged Metar Reports

Daily Weather History Graph

Daily Weather History Graph

Search for Another Location

Airport:

Trip Planner

Search our weather history database for the weather conditions in past years. The results will help you decide how hot, cold, wet, or windy it might be!

Date:

Astronomy

Nov. 19, 2012 Rise Set
Actual Time 8:08 AM GMT 3:50 PM GMT
Civil Twilight 7:22 AM GMT 4:36 PM GMT
Nautical Twilight 6:33 AM GMT 5:24 PM GMT
Astronomical Twilight 5:47 AM GMT 6:10 PM GMT
Moon 12:36 PM GMT (11/19) 10:33 PM GMT (11/19)
Length of Visible Light 9h 13m
Length of Day
7h 42m
Waxing Crescent, 38% of the Moon is Illuminated
Nov 19
Waxing Crescent
Nov 20
First Quarter
Nov 28
Full
Dec 6
Last Quarter
Dec 13
New

Hourly Weather History & Observations

Time (GMT) Temp. Windchill Dew Point Humidity Pressure Visibility Wind Dir Wind Speed Gust Speed Precip Events Conditions
12:50 AM 39.2 °F 33.6 °F 35.6 °F 87% 29.56 in 6.2 mi East 8.1 mph - N/A Rain Light Rain
1:50 AM 41.0 °F 35.8 °F 35.6 °F 81% 29.53 in 6.2 mi East 8.1 mph - N/A Rain Light Rain
2:50 AM 41 °F - 36 °F 76% 29.50 in 15 mi SE 11.5 mph - - Rain Rain
2:50 AM 41.0 °F 34.3 °F 35.6 °F 81% 29.47 in 6.2 mi SE 11.5 mph - N/A Rain Rain
3:50 AM 41.0 °F 34.3 °F 35.6 °F 81% 29.42 in 6.2 mi SE 11.5 mph - N/A   Overcast
4:50 AM 42.8 °F 37.5 °F 35.6 °F 76% 29.39 in 6.2 mi SE 9.2 mph - N/A   Overcast
5:50 AM 42 °F - 36 °F 74% 29.36 in 6 mi SE 6.9 mph - - Rain Rain Showers
5:50 AM 41.0 °F 36.4 °F 37.4 °F 87% 29.36 in 6.2 mi SE 6.9 mph - N/A Rain Rain Showers
6:50 AM 41.0 °F 36.4 °F 37.4 °F 87% 29.30 in 6.2 mi ESE 6.9 mph - N/A Rain Light Rain
7:50 AM 41.0 °F 37.1 °F 37.4 °F 87% 29.27 in 6.2 mi East 5.8 mph - N/A Rain Rain
8:50 AM 42 °F - 40 °F 88% 29.25 in 47 mi East 5.8 mph - - Rain Light Rain
8:50 AM 42.8 °F 39.3 °F 39.2 °F 87% 29.24 in 6.2 mi East 5.8 mph - N/A   Mostly Cloudy
9:50 AM 42.8 °F 39.3 °F 41.0 °F 93% 29.21 in 6.2 mi NE 5.8 mph - N/A   Mostly Cloudy
10:50 AM 44.6 °F - 42.8 °F 93% 29.18 in 6.2 mi SE 1.2 mph - N/A   Mostly Cloudy
11:50 AM 54 °F - 46 °F 65% 29.18 in 16 mi South 13.8 mph - -   Mostly Cloudy
11:50 AM 53.6 °F - 46.4 °F 77% 29.18 in 6.2 mi South 13.8 mph - N/A   Mostly Cloudy
12:50 PM 55.4 °F - 46.4 °F 72% 29.18 in 6.2 mi SSW 10.4 mph - N/A   Mostly Cloudy
1:50 PM 57.2 °F - 48.2 °F 72% 29.15 in - SSW 11.5 mph - N/A   Clear
2:50 PM 57 °F - 47 °F 60% 29.17 in 47 mi SSW 5.8 mph - -   Mostly Cloudy
2:50 PM 57.2 °F - 46.4 °F 67% 29.15 in 6.2 mi SSW 5.8 mph - N/A   Mostly Cloudy
3:53 PM 55.4 °F - 46.4 °F 72% 29.15 in 6.2 mi SSW 15.0 mph - N/A   Scattered Clouds
4:50 PM 53.6 °F - 44.6 °F 72% 29.18 in 6.2 mi SSW 11.5 mph - N/A   Mostly Cloudy
5:50 PM 53 °F - 45 °F 65% 29.20 in 47 mi South 6.9 mph - -   Scattered Clouds
5:50 PM 53.6 °F - 44.6 °F 72% 29.18 in 6.2 mi South 6.9 mph - N/A   Scattered Clouds
6:50 PM 53.6 °F - 44.6 °F 72% 29.21 in 6.2 mi SSW 12.7 mph - N/A   Unknown
7:50 PM 53.6 °F - 44.6 °F 72% 29.21 in 6.2 mi SSW 15.0 mph - N/A   Unknown
8:50 PM 53 °F - 46 °F 68% 29.23 in 47 mi SSW 15.0 mph - -  
8:50 PM 53.6 °F - 46.4 °F 77% 29.21 in 6.2 mi SSW 15.0 mph - N/A   Unknown
9:50 PM 53.6 °F - 46.4 °F 77% 29.24 in 6.2 mi SSW 19.6 mph 32.2 mph N/A   Unknown
10:50 PM 51.8 °F - 41.0 °F 67% 29.30 in 6.2 mi SW 23.0 mph 36.8 mph N/A   Unknown
11:50 PM 51 °F - 40 °F 57% 29.33 in 47 mi SSW 18.4 mph - -  
11:50 PM 51.8 °F - 41.0 °F 67% 29.33 in 6.2 mi SSW 18.4 mph - N/A   Unknown